• In Russia
  • List of Countries
  • For 7 days
  • Water Temperature
  • Satellite Maps
  • Weather Map
  • Weather Widgets
  • user-avatar
    Login

    Hourly Weather Honholoy

    Today, 25 April, Thursday

    Time Temperature Precipitation Wind Pressure Humidity
    00:00 +1°C° 0 mm 1 mps 689 mmHg 29%
    01:00 0°C° 0 mm 1 mps 689 mmHg 30%
    02:00 0°C° 0 mm 1 mps 689 mmHg 31%
    03:00 -1°C° 0 mm 1 mps 689 mmHg 32%
    04:00 -1°C° 0 mm 1 mps 689 mmHg 33%
    05:00 +1°C° 0 mm 1 mps 689 mmHg 30%
    06:00 +3°C° 0 mm 1 mps 689 mmHg 26%
    07:00 +5°C° 0 mm 1 mps 690 mmHg 23%
    08:00 +7°C° 0 mm 1 mps 690 mmHg 22%
    09:00 +10°C° 0 mm 1 mps 690 mmHg 21%
    10:00 +12°C° 0 mm 1 mps 690 mmHg 21%
    11:00 +13°C° 0 mm 1 mps 690 mmHg 20%
    12:00 +13°C° 0 mm 1 mps 690 mmHg 20%
    13:00 +14°C° 0 mm 1 mps 690 mmHg 19%
    14:00 +14°C° 0 mm 1 mps 689 mmHg 19%
    15:00 +14°C° 0 mm 2 mps 689 mmHg 19%
    16:00 +14°C° 0 mm 2 mps 689 mmHg 19%
    17:00 +12°C° 0 mm 1 mps 689 mmHg 23%
    18:00 +10°C° 0 mm 1 mps 689 mmHg 26%
    19:00 +8°C° 0 mm 1 mps 688 mmHg 30%
    20:00 +7°C° 0 mm 1 mps 688 mmHg 32%
    21:00 +6°C° 0 mm 1 mps 689 mmHg 34%
    22:00 +6°C° 0 mm 1 mps 689 mmHg 37%
    23:00 +5°C° 0 mm 1 mps 688 mmHg 38%

    Tomorrow, 26 April, Friday

    Time Temperature Precipitation Wind Pressure Humidity
    00:00 +3°C° 0 mm 2 mps 688 mmHg 40%
    01:00 +3°C° 0 mm 2 mps 688 mmHg 41%
    02:00 +2°C° 0 mm 2 mps 687 mmHg 45%
    03:00 +2°C° 0 mm 2 mps 687 mmHg 49%
    04:00 +1°C° 0 mm 2 mps 687 mmHg 53%
    05:00 +2°C° 0 mm 3 mps 686 mmHg 49%
    06:00 +4°C° 0 mm 3 mps 686 mmHg 46%
    07:00 +6°C° 0 mm 4 mps 686 mmHg 43%
    08:00 +8°C° 0 mm 4 mps 685 mmHg 38%
    09:00 +10°C° 0 mm 4 mps 685 mmHg 34%
    10:00 +12°C° 0 mm 4 mps 684 mmHg 30%
    11:00 +13°C° 0 mm 5 mps 684 mmHg 30%
    12:00 +13°C° 0 mm 5 mps 684 mmHg 30%
    13:00 +14°C° 0 mm 5 mps 683 mmHg 30%
    14:00 +12°C° 0.4 mm 4 mps 683 mmHg 40%
    15:00 +11°C° 0.4 mm 4 mps 683 mmHg 51%
    16:00 +9°C° 0.4 mm 3 mps 683 mmHg 61%
    17:00 +9°C° 0 mm 3 mps 684 mmHg 61%
    18:00 +8°C° 0 mm 3 mps 685 mmHg 62%
    19:00 +7°C° 0 mm 3 mps 686 mmHg 62%
    20:00 +6°C° 0 mm 2 mps 686 mmHg 67%
    21:00 +5°C° 0 mm 2 mps 687 mmHg 72%
    22:00 +5°C° 0 mm 1 mps 688 mmHg 77%
    23:00 +4°C° 0 mm 1 mps 688 mmHg 79%

    Day after tomorrow, 27 April, Saturday

    Time Temperature Precipitation Wind Pressure Humidity
    00:00 +4°C° 0 mm 1 mps 688 mmHg 81%
    01:00 +4°C° 0 mm 1 mps 688 mmHg 82%
    02:00 +3°C° 0 mm 1 mps 688 mmHg 84%
    03:00 +3°C° 0 mm 1 mps 688 mmHg 85%
    04:00 +3°C° 0 mm 1 mps 688 mmHg 86%
    05:00 +5°C° 0 mm 1 mps 688 mmHg 77%
    06:00 +6°C° 0 mm 1 mps 689 mmHg 69%
    07:00 +8°C° 0 mm 1 mps 689 mmHg 60%
    08:00 +11°C° 0 mm 1 mps 689 mmHg 51%
    09:00 +13°C° 0 mm 2 mps 689 mmHg 43%
    10:00 +15°C° 0 mm 2 mps 689 mmHg 34%
    11:00 +16°C° 0 mm 3 mps 688 mmHg 30%
    12:00 +17°C° 0 mm 3 mps 688 mmHg 27%
    13:00 +18°C° 0 mm 3 mps 687 mmHg 23%
    14:00 +18°C° 0 mm 3 mps 687 mmHg 22%
    15:00 +18°C° 0 mm 3 mps 686 mmHg 22%
    16:00 +18°C° 0 mm 3 mps 686 mmHg 21%
    17:00 +16°C° 0 mm 2 mps 685 mmHg 27%
    18:00 +14°C° 0 mm 2 mps 685 mmHg 32%
    19:00 +12°C° 0 mm 2 mps 685 mmHg 38%
    20:00 +10°C° 0 mm 2 mps 685 mmHg 44%
    21:00 +9°C° 0 mm 2 mps 686 mmHg 50%
    22:00 +9°C° 0 mm 2 mps 686 mmHg 55%
    23:00 +8°C° 0.2 mm 2 mps 686 mmHg 62%

    28 April, Sunday

    Time Temperature Precipitation Wind Pressure Humidity
    00:00 +9°C° 0.2 mm 1 mps 686 mmHg 68%
    01:00 +8°C° 0.2 mm 1 mps 686 mmHg 75%
    02:00 +8°C° 0 mm 1 mps 686 mmHg 78%
    03:00 +7°C° 0 mm 1 mps 685 mmHg 80%
    04:00 +7°C° 0 mm 1 mps 685 mmHg 83%
    05:00 +7°C° 0 mm 0 mps 685 mmHg 77%
    06:00 +8°C° 0 mm 0 mps 685 mmHg 70%
    07:00 +10°C° 0 mm 0 mps 685 mmHg 64%
    08:00 +12°C° 0 mm 1 mps 685 mmHg 56%
    09:00 +14°C° 0 mm 1 mps 685 mmHg 48%
    10:00 +16°C° 0 mm 2 mps 685 mmHg 40%
    11:00 +17°C° 0 mm 2 mps 684 mmHg 35%
    12:00 +17°C° 0 mm 3 mps 684 mmHg 31%
    13:00 +18°C° 0 mm 3 mps 683 mmHg 26%
    14:00 +18°C° 0 mm 3 mps 683 mmHg 24%
    15:00 +18°C° 0 mm 4 mps 683 mmHg 23%
    16:00 +18°C° 0 mm 4 mps 683 mmHg 21%
    17:00 +14°C° 0 mm 6 mps 683 mmHg 33%
    18:00 +9°C° 0 mm 8 mps 684 mmHg 46%
    19:00 +5°C° 0 mm 10 mps 684 mmHg 59%
    20:00 +2°C° 0 mm 10 mps 685 mmHg 61%
    21:00 -1°C° 0 mm 9 mps 687 mmHg 64%
    22:00 -4°C° 0 mm 9 mps 688 mmHg 67%
    23:00 -5°C° 0.3 mm 9 mps 689 mmHg 67%

    29 April, Monday

    Time Temperature Precipitation Wind Pressure Humidity
    00:00 -6°C° 0.3 mm 9 mps 690 mmHg 66%
    01:00 -8°C° 0.3 mm 10 mps 691 mmHg 66%
    02:00 -8°C° 0.2 mm 9 mps 692 mmHg 59%
    03:00 -7°C° 0.2 mm 8 mps 693 mmHg 51%
    04:00 -7°C° 0.2 mm 7 mps 694 mmHg 44%
    05:00 -7°C° 0 mm 7 mps 694 mmHg 43%
    06:00 -6°C° 0 mm 7 mps 694 mmHg 42%
    07:00 -6°C° 0 mm 8 mps 695 mmHg 42%
    08:00 -4°C° 0 mm 7 mps 695 mmHg 37%
    09:00 -3°C° 0 mm 7 mps 695 mmHg 33%
    10:00 -1°C° 0 mm 7 mps 695 mmHg 28%
    11:00 0°C° 0 mm 7 mps 695 mmHg 26%
    12:00 +2°C° 0 mm 7 mps 695 mmHg 24%
    13:00 +3°C° 0 mm 7 mps 694 mmHg 22%
    14:00 +3°C° 0 mm 6 mps 694 mmHg 21%
    15:00 +3°C° 0 mm 6 mps 694 mmHg 21%
    16:00 +5°C° 0 mm 5 mps 694 mmHg 21%
    17:00 +3°C° 0 mm 4 mps 694 mmHg 25%
    18:00 +2°C° 0 mm 3 mps 694 mmHg 28%
    19:00 +1°C° 0 mm 2 mps 694 mmHg 32%
    20:00 +1°C° 0 mm 1 mps 694 mmHg 34%
    21:00 0°C° 0 mm 1 mps 694 mmHg 36%
    22:00 -2°C° 0 mm 0 mps 695 mmHg 38%
    23:00 -1°C° 0 mm 1 mps 695 mmHg 39%

    30 April, Tuesday

    Time Temperature Precipitation Wind Pressure Humidity
    00:00 -1°C° 0 mm 1 mps 695 mmHg 41%
    01:00 -2°C° 0 mm 1 mps 694 mmHg 42%
    02:00 -2°C° 0 mm 1 mps 694 mmHg 43%
    03:00 -2°C° 0 mm 1 mps 694 mmHg 45%
    04:00 -2°C° 0 mm 1 mps 694 mmHg 46%
    05:00 0°C° 0 mm 1 mps 694 mmHg 41%
    06:00 +2°C° 0 mm 1 mps 694 mmHg 36%
    07:00 +4°C° 0 mm 1 mps 694 mmHg 31%
    08:00 +6°C° 0 mm 2 mps 694 mmHg 29%
    09:00 +9°C° 0 mm 2 mps 693 mmHg 26%
    10:00 +11°C° 0 mm 3 mps 693 mmHg 24%
    11:00 +12°C° 0 mm 3 mps 692 mmHg 22%
    12:00 +14°C° 0 mm 3 mps 692 mmHg 20%
    13:00 +16°C° 0 mm 3 mps 691 mmHg 19%
    14:00 +16°C° 0 mm 3 mps 691 mmHg 19%
    15:00 +16°C° 0 mm 3 mps 690 mmHg 18%
    16:00 +17°C° 0 mm 3 mps 690 mmHg 18%
    17:00 +14°C° 0 mm 2 mps 690 mmHg 23%
    18:00 +12°C° 0 mm 2 mps 689 mmHg 28%
    19:00 +10°C° 0 mm 1 mps 689 mmHg 32%
    20:00 +9°C° 0 mm 1 mps 689 mmHg 34%
    21:00 +8°C° 0 mm 1 mps 689 mmHg 37%
    22:00 +7°C° 0 mm 1 mps 689 mmHg 39%
    23:00 +6°C° 0 mm 1 mps 689 mmHg 40%
    Show more